Zurück zum Katalog

ONEWEB-0314

AktivKommunikationPO
NORAD 49100·PAYLOAD·🇬🇧 United Kingdom

Gestartet Aug 21, 2021 von Baikonur Cosmodrome

Loading…

Nächste Überflüge (nächste 24 Stunden)

TLE

AktuellSource: CelesTrak SupGP

Epoche: Sep 14, 2026, 23:57 UTC

1 49100C 21075AB  26257.99840694 -.00000487  00000+0 -12553-2 0  2575
2 49100  87.9218 348.0247 0001691 113.0880 283.5068 13.17651547    10

Verfolge ONEWEB-0314 in Echtzeit mit AllMySat

Download on the App Store